TimeCDT,TemperatureF,Dew PointF,Humidity,Sea Level PressureIn,VisibilityMPH,Wind Direction,Wind SpeedMPH,Gust SpeedMPH,PrecipitationIn,Events,Conditions,WindDirDegrees,DateUTC
12:52 AM,60.1,57.9,93,30.06,10.0,NW,3.5,-,N/A,,Clear,310,2011-10-10 05:52:00
1:52 AM,59.0,57.0,93,30.06,10.0,NW,3.5,-,N/A,,Clear,320,2011-10-10 06:52:00
2:38 AM,57.2,57.2,100,30.10,4.0,NNW,4.6,-,N/A,,Scattered Clouds,330,2011-10-10 07:38:00
2:40 AM,57.2,57.2,100,30.10,1.2,NNW,5.8,-,N/A,,Scattered Clouds,330,2011-10-10 07:40:00
2:45 AM,57.2,57.2,100,30.10,0.2,NNW,5.8,-,N/A,Fog,Fog,340,2011-10-10 07:45:00
2:52 AM,57.0,57.0,100,30.05,0.2,NNW,5.8,-,N/A,Fog,Fog,340,2011-10-10 07:52:00
3:52 AM,57.0,57.0,100,30.04,0.2,NW,4.6,-,N/A,Fog,Fog,320,2011-10-10 08:52:00
4:52 AM,57.0,57.0,100,30.03,0.2,NNW,3.5,-,N/A,Fog,Fog,340,2011-10-10 09:52:00
5:01 AM,57.2,57.2,100,30.08,0.2,Calm,Calm,-,N/A,Fog,Fog,0,2011-10-10 10:01:00
5:50 AM,57.2,57.2,100,30.09,0.5,WNW,3.5,-,N/A,Fog,Fog,300,2011-10-10 10:50:00
5:52 AM,57.9,57.9,100,30.05,0.5,NW,3.5,-,N/A,Fog,Fog,310,2011-10-10 10:52:00
6:21 AM,57.2,57.2,100,30.09,1.2,WNW,4.6,-,N/A,,Overcast,300,2011-10-10 11:21:00
6:52 AM,57.9,57.9,100,30.05,0.8,NNE,3.5,-,N/A,,Mist,20,2011-10-10 11:52:00
7:25 AM,57.2,57.2,100,30.10,1.2,NNW,4.6,-,N/A,,Overcast,340,2011-10-10 12:25:00
7:34 AM,57.2,57.2,100,30.10,3.0,North,5.8,-,N/A,,Overcast,350,2011-10-10 12:34:00
7:52 AM,57.9,57.9,100,30.06,10.0,NNW,4.6,-,N/A,,Overcast,330,2011-10-10 12:52:00
8:12 AM,57.2,57.2,100,30.11,10.0,NNW,3.5,-,N/A,,Overcast,340,2011-10-10 13:12:00
8:52 AM,60.1,57.0,90,30.08,10.0,Calm,Calm,-,N/A,,Overcast,0,2011-10-10 13:52:00
9:52 AM,61.0,59.0,93,30.09,10.0,NNE,3.5,-,N/A,,Overcast,20,2011-10-10 14:52:00
10:00 AM,60.8,59.0,94,30.14,10.0,North,3.5,-,N/A,,Overcast,350,2011-10-10 15:00:00
10:15 AM,62.6,57.2,82,30.14,10.0,North,4.6,-,N/A,,Overcast,350,2011-10-10 15:15:00
10:40 AM,62.6,59.0,88,30.14,10.0,North,6.9,-,N/A,,Overcast,350,2011-10-10 15:40:00
10:52 AM,62.1,59.0,90,30.10,10.0,NNE,4.6,-,N/A,,Overcast,30,2011-10-10 15:52:00
11:34 AM,64.4,57.2,77,30.14,10.0,Calm,Calm,-,N/A,,Overcast,0,2011-10-10 16:34:00
11:52 AM,64.0,57.0,78,30.09,10.0,NNW,4.6,-,N/A,,Overcast,340,2011-10-10 16:52:00
12:52 PM,66.0,57.0,73,30.08,10.0,NNW,3.5,-,N/A,,Overcast,330,2011-10-10 17:52:00
1:52 PM,66.0,57.9,75,30.06,10.0,North,5.8,-,N/A,,Overcast,10,2011-10-10 18:52:00
2:41 PM,68.0,57.2,68,30.08,10.0,NW,5.8,-,N/A,,Overcast,310,2011-10-10 19:41:00
2:52 PM,69.1,57.0,65,30.03,10.0,Calm,Calm,-,N/A,,Mostly Cloudy,0,2011-10-10 19:52:00
3:52 PM,70.0,55.9,61,30.00,10.0,Calm,Calm,-,N/A,,Scattered Clouds,0,2011-10-10 20:52:00
4:52 PM,72.0,57.0,59,29.97,10.0,Calm,Calm,-,N/A,,Partly Cloudy,0,2011-10-10 21:52:00
5:52 PM,71.1,55.9,59,29.96,10.0,ESE,8.1,-,N/A,,Clear,110,2011-10-10 22:52:00
6:52 PM,69.1,57.0,65,29.96,10.0,ESE,3.5,-,N/A,,Clear,120,2011-10-10 23:52:00
7:52 PM,64.9,57.9,78,29.97,10.0,ESE,6.9,-,N/A,,Clear,110,2011-10-11 00:52:00
8:52 PM,63.0,57.0,81,29.98,10.0,ESE,6.9,-,N/A,,Clear,120,2011-10-11 01:52:00
9:52 PM,61.0,57.0,87,29.99,10.0,SE,5.8,-,N/A,,Clear,130,2011-10-11 02:52:00
10:52 PM,59.0,57.0,93,29.99,10.0,SSE,4.6,-,N/A,,Clear,150,2011-10-11 03:52:00
11:52 PM,59.0,55.9,90,29.99,10.0,SSE,5.8,-,N/A,,Clear,150,2011-10-11 04:52:00